Home > Weather > Mariehamn > Past weeks

Flag for Åland Islands Past Weather in Mariehamn, Åland Islands — Yesterday and Last 2 Weeks

Now
59 °F

Sprinkles. Low clouds.


Feels Like: 60 °F
Forecast: 54 / 59 °F
Wind: 3 mph from East

Location: Mariehamn / Aland Island

Current Time: Aug 29, 2016 at 9:00:54 PM

Latest Report: Aug 29, 2016 at 8:20 PM


Visibility: N/A

Pressure: 29.59 "Hg

Humidity: 94%

Dew Point: 57 °F

Location of MariehamnLocation

Past Weather in Mariehamn — Graph

°F

Mariehamn Temperature Yesterday

Maximum temperature yesterday: 59 °F (at 10:20 AM)
Minimum temperature yesterday: 41 °F (at 6:20 AM)
Average temperature yesterday: 53 °F

High & Low Weather Summary for the Past Weeks

 TemperatureHumidityPressure
High72 °F (Aug 26, 1:50 PM)100% (Aug 19, 4:50 AM)30.27 "Hg (Aug 19, 4:50 AM)
Low41 °F (Aug 28, 6:20 AM)43% (Aug 27, 5:20 PM)29.59 "Hg (Aug 29, 6:20 PM)
Average60 °F86%29.96 "Hg
* Reported Aug 14 7:20 PM — Aug 29 7:50 PM, Mariehamn, Weather by CustomWeather, © 2016

Note: Actual official high and low records may vary slightly from our data, if they occured in-between our weather recording intervals... More about our weather records

Advertising

Mariehamn Weather History for the Previous 24 Hours

Scroll right to see more
 ConditionsComfort  
Time TempWeatherWind HumidityBarometerVisibility
7:50 PM
Mon, Aug 29
59 °FLow clouds.6 mph94%29.59 "HgN/A
7:20 PM59 °FSprinkles. Low clouds.6 mph94%29.59 "Hg6 mi
6:50 PM59 °FLight rain. Low clouds.6 mph94%29.59 "HgN/A
6:20 PM59 °FRain. Low clouds.3 mph94%29.59 "Hg4 mi
5:50 PM59 °FDrizzle. Low clouds.6 mph94%29.62 "Hg4 mi
5:20 PM59 °FLight rain. Low clouds.6 mph94%29.62 "Hg4 mi
4:50 PM59 °FLight rain. Low clouds.5 mph94%29.62 "Hg4 mi
4:20 PM61 °FDrizzle. Low clouds.6 mph94%29.62 "HgN/A
3:50 PM61 °FLow clouds.5 mph94%29.62 "HgN/A
3:20 PM59 °FLow clouds.5 mph94%29.65 "HgN/A
2:50 PM59 °FLight rain. Low clouds.6 mph94%29.65 "HgN/A
2:20 PM59 °FLight rain. Low clouds.6 mph94%29.65 "HgN/A
1:50 PM59 °FLight rain. Low clouds.3 mph94%29.65 "HgN/A
1:20 PM59 °FLight rain. Low clouds.6 mph94%29.65 "HgN/A
12:50 PM59 °FLight rain. Low clouds.7 mph94%29.65 "HgN/A
12:20 PM57 °FLight rain. Low clouds.6 mph100%29.68 "HgN/A
11:50 AM57 °FRain. Low clouds.8 mph94%29.68 "HgN/A
11:20 AM57 °FRain. Overcast.6 mph94%29.71 "HgN/A
10:50 AM57 °FRain. Overcast.8 mph88%29.71 "HgN/A
10:20 AM57 °FOvercast.8 mph88%29.74 "HgN/A
9:50 AM57 °FOvercast.8 mph94%29.74 "HgN/A
9:20 AM57 °FMostly cloudy.7 mph88%29.77 "HgN/A
8:50 AM57 °FOvercast.8 mph88%29.77 "HgN/A
8:20 AM57 °FMore clouds than sun.8 mph88%29.77 "HgN/A
7:50 AM57 °FSprinkles. Mostly cloudy.9 mph94%29.80 "HgN/A
7:20 AM57 °FSprinkles. Mostly cloudy.5 mph94%29.80 "HgN/A
6:50 AM57 °FLight rain. Overcast.5 mph88%29.83 "HgN/A
6:20 AM55 °FLight rain. Mostly cloudy.5 mph94%29.83 "HgN/A
5:50 AM55 °FLight rain. Overcast.5 mph94%29.86 "HgN/A
5:20 AM55 °FLight rain. Overcast.6 mph94%29.89 "HgN/A
4:50 AM55 °FPassing clouds.5 mph94%29.89 "HgN/A
4:20 AM55 °FPassing clouds.3 mph88%29.92 "HgN/A
3:50 AM54 °FLight rain. Overcast.2 mph94%29.92 "HgN/A
3:20 AM54 °FLight rain. Overcast.6 mph94%29.95 "HgN/A
2:50 AM54 °FLight rain. Overcast.5 mph94%29.95 "HgN/A
2:20 AM54 °FLight rain. Mostly cloudy.3 mph88%29.98 "HgN/A
1:50 AM54 °FLight rain. Overcast.5 mph88%29.98 "HgN/A
1:20 AM54 °FLight rain. Overcast.1 mph88%29.98 "HgN/A
12:50 AM52 °FSprinkles. Overcast.3 mph94%29.98 "HgN/A
12:20 AM52 °FSprinkles. Overcast.3 mph94%30.01 "HgN/A
11:50 PM
Sun, Aug 28
54 °FLight rain. Overcast.1 mph88%30.01 "HgN/A
11:20 PM54 °FClear.2 mph82%30.04 "Hg10 mi
10:50 PM54 °FClear.2 mph82%30.04 "Hg10 mi
10:20 PM52 °FClear.5 mph88%30.04 "Hg10 mi
9:50 PM52 °FSunny.2 mph88%30.04 "Hg10 mi
9:20 PM54 °FSunny.1 mph82%30.04 "Hg10 mi
Weather by CustomWeather, © 2016

See weather overviewHow to use our weather pages